Location: Tuebingen alte Sternwarte
(48.5376°N, 9.0555°E)
Time: 02:42:58
(UTC+01:00)

Tiangong 1 - Visible Passes

Search period start: 22 November 2017 00:00
Search period end: 02 December 2017 00:00
Orbit: 284 x 308 km, 42.8° (Epoch: 21 November)

Date Brightness Start Highest point End Pass type
(mag) Time Alt. Az. Time Alt. Az. Time Alt. Az.
27 Nov 3.1 18:01:02 10° S 18:02:09 12° SSE 18:02:44 11° SE visible
28 Nov 2.8 18:06:24 10° SSW 18:08:10 16° SSE 18:08:39 16° SSE visible
29 Nov 2.5 18:12:04 10° SW 18:14:05 20° S 18:14:27 20° SSE visible
30 Nov 2.4 18:17:48 10° SW 18:19:55 22° S 18:20:09 22° S visible
01 Dec 2.5 18:23:33 10° WSW 18:25:38 22° S 18:25:46 21° S visible
